User: anonymous   Login
Location: Caltech
(34.1382°N, 118.1253°W)
Time: 13:43:39
(UTC-07:00)
Language:

ALOS - Orbit

View from above orbital plane
View from above orbital plane
View from above satellite
View from above satellite

Ground track
Ground track

The orbit data is extracted from the following two-line orbital elements,

1 28931U 06002A   17200.98138091 +.00000177 +00000-0 +43588-4 0  9997
2 28931 097.8423 226.6944 0001281 130.8052 229.3274 14.62369934612254
Epoch (UTC): 19 July 2017 23:33:11
Eccentricity: 0.0001281
inclination: 97.8423°
perigee height: 684 km
apogee height: 686 km
right ascension of ascending node: 226.6944°
argument of perigee: 130.8052°
revolutions per day: 14.62369934
mean anomaly at epoch: 229.3274°
orbit number at epoch: 61225

The dashed part of the orbit path shows where the satellite is in the earth's shadow,  

DLR